Flag for Poland Weather past 2 weeks in Chorzów, Poland

61 °F


Feels Like: 61 °F
Forecast: 46 / 58 °F
Wind: 6 mph from East

Location: Katowice Airport

Current Time: Oct 6, 2015 at 7:10:18 PM

Latest Report: Oct 6, 2015 at 6:30 PM

Visibility: 10 mi

Pressure: 29.89 "Hg

Humidity: 68%

Dew point: 50 °F

Location of ChorzówLocation

Historic Weather in Chorzów — Graph


Chorzów temperature yesterday

Maximum temperature yesterday: 70 °F (at 3:00 PM)
Minimum temperature yesterday: 45 °F (at 10:00 PM)
Average temperature yesterday: 56 °F

Past Weeks' High & Low Weather Summary

High73 °F (Oct 4, 3:00 PM)100% (Sep 22, 2:30 AM)30.57 "Hg (Sep 22, 2:30 AM)
Low28 °F (Oct 1, 5:00 AM)32% (Oct 2, 3:00 PM)29.74 "Hg (Sep 23, 4:00 AM)
Average52 °F74%30.18 "Hg
* Reported Sep 21 6:00 PM — Oct 6 6:00 PM, Chorzów, Weather by CustomWeather, © 2015

Note: Actual official high and low records may vary slightly from our data, if they occured in-between our weather recording intervals... More about our weather records


Chorzów weather history for previous 24 hours

Time TempWeatherWind HumidityBarometerVisibility
6:00 PM
Tue, Oct 6
63 °FSunny.9 mph64%29.89 "Hg10 mi
5:30 PM64 °FSunny.9 mph64%29.89 "Hg10 mi
5:00 PM66 °FPassing clouds.9 mph56%29.86 "HgN/A
4:30 PM66 °FScattered clouds.12 mph56%29.86 "HgN/A
4:00 PM66 °FPartly sunny.12 mph56%29.89 "HgN/A
3:30 PM68 °FScattered clouds.10 mph53%29.89 "HgN/A
3:00 PM68 °FPassing clouds.8 mph53%29.89 "HgN/A
2:30 PM68 °FScattered clouds.7 mph53%29.89 "HgN/A
2:00 PM68 °FPassing clouds.6 mph49%29.89 "HgN/A
1:30 PM68 °FSunny.12 mph49%29.89 "Hg10 mi
1:00 PM68 °FPassing clouds.7 mph53%29.89 "HgN/A
12:30 PM68 °FSunny.2 mph53%29.92 "Hg10 mi
12:00 PM66 °FPassing clouds.6 mph56%29.92 "HgN/A
11:30 AM64 °FClear.7 mph60%29.92 "Hg5 mi
11:00 AM63 °FClear.7 mph64%29.92 "Hg4 mi
10:30 AM61 °FPassing clouds.5 mph68%29.95 "Hg4 mi
10:00 AM57 °FPassing clouds.3 mph77%29.92 "Hg4 mi
9:30 AM55 °FFog.5 mph82%29.95 "Hg3 mi
9:00 AM54 °FFog.2 mph82%29.95 "Hg2 mi
8:30 AM48 °FFog.3 mph94%29.95 "Hg1 mi
8:00 AM45 °FFog.6 mph100%29.92 "Hg1 mi
7:30 AM41 °FQuite cool.5 mph100%29.92 "Hg1 mi
7:00 AM39 °FLight fog.3 mph93%29.95 "Hg1 mi
6:30 AM37 °FChilly.1 mph93%29.92 "Hg1 mi
6:00 AM37 °FFog.1 mph93%29.95 "Hg1 mi
5:30 AM39 °FFog.3 mph93%29.92 "Hg3 mi
5:00 AM39 °FFog.3 mph93%29.95 "Hg2 mi
4:30 AM37 °FClear.No wind100%29.95 "Hg4 mi
4:00 AM39 °FClear.1 mph93%29.95 "Hg4 mi
3:30 AM41 °FFog.1 mph93%29.95 "Hg4 mi
3:00 AM39 °FClear.1 mph93%29.95 "Hg4 mi
2:30 AM41 °FClear.2 mph93%29.95 "Hg4 mi
2:00 AM39 °FClear.1 mph100%29.98 "Hg4 mi
1:30 AM41 °FClear.5 mph93%29.98 "Hg4 mi
1:00 AM41 °FClear.1 mph93%29.98 "Hg5 mi
12:30 AM43 °FFog.2 mph93%29.98 "Hg4 mi
12:00 AM43 °FFog.1 mph93%29.98 "Hg4 mi
11:00 PM
Mon, Oct 5
45 °FClear.1 mph93%29.98 "Hg4 mi
10:30 PM45 °FClear.1 mph87%29.98 "Hg4 mi
10:00 PM45 °FClear.1 mph93%30.01 "Hg10 mi
9:30 PM48 °FClear.2 mph82%29.98 "Hg10 mi
9:00 PM48 °FClear.1 mph87%29.98 "Hg10 mi
8:30 PM50 °FClear.2 mph82%29.98 "Hg10 mi
8:00 PM50 °FClear.No wind82%29.98 "Hg10 mi
7:30 PM55 °FClear.2 mph67%29.98 "Hg10 mi
7:00 PM55 °FSunny.2 mph72%29.98 "Hg10 mi
Weather by CustomWeather, © 2015

See weather overviewHow to use our weather pages